STARLINK-1202, 45183

Orbit data source: Space-Track

STARLINK-1202, 45183 is a payload satellite owned by SpaceX/Seattle (US) in LEO that was launched on Mon, 17 Feb 2020 UTC via an FALCON 9 launch vehicle from the Air Force Eastern Test Range (AFETR). Payload-class satellites include a variety of spacecraft equipped with specific instruments for various scientific and technological missions. These include communications satellites like Starlink; space stations such as the ISS; scientific satellites like the Hubble; Earth observation satellites from companies like Planet Labs, Umbra, and HawkEye 360; GPS; miniature CubeSats for education and research; and military/defense satellites.

Loading next visibility...
Identifier
45183, 2020-012F
Orbit
LEO
Country
Flag of USUS
Related business
Manufacturer
SpaceX/Seattle
Mission
Operational Commercial Communications
Bus & Motor
STARLINK, Unknown motor
Mass
260 kg wet, ~248 kg dry
Launch date (UTC)
2020-02-17 (6 years ago)
Launch vehicle
FALCON 9
Launch site
Air Force Eastern Test Range (AFETR)
Object type
Payload
Rocket body
Debris
Shape & HBR
Box + 1 Pan, 10.1 m
Radar Cross Section
13.562 m², Large (>1 m²)

Expand to show TLE details & history
Last TLE update: 9 hours ago

TLE from 9 hours ago
0 STARLINK-1202
1 45183U 20012F   25288.40708996  .00014832  00000-0  10126-2 0  9994
2 45183  53.0555 338.8199 0001394 102.7714 257.3430 15.06397293312944
Epoch: 2025-10-15T09:46Z
TLE epoch observation values (Epoch: 2025-10-15T09:46:12.572Z)
Latitude
-0.00009°
Longitude
168.08584°
Altitude
548.311 km
Speed
7.589 km/s
True Right ascension
22h 35m 16s
True Declination
0° 00' 00"
Sunlit
Object was in full shadow at epoch
Visualization orbit readout
Latitude
Unknown
Longitude
Unknown
Altitude
Unknown
Speed
Unknown
Apparent Right ascension
Unknown
Apparent Declination
Unknown
Sunlit
N/A
Visualization observer readout
Local Sidereal Time
13:46:19
Azimuth
Unknown
Elevation
Unknown
Doppler factor
Unknown
Orbital elements
Apogee altitude
548.456 km
Perigee altitude
546.525 km
Semi-major axis
6,925.627 km
Eccentricity
0.00014
Inclination
53.0555°
RAAN
338.8199°
Arg. of periapsis
102.7714°
True anomaly
257.32741°
Mean anomaly
257.343°
Eccentric anomaly
257.33521°
Mean motion
3.76578 °/min
Orbital period
95.6 mins
BSTAR
0.0010126
Loading maneuver chart data...
Computing Atmospheric mass density...

Documentation

Showing up to 5 results
|